[[{"header":{"parameterUnit":"m.s-1","parameterCategory":2,"la1":30.2991,"la2":30.254,"lo1":-89.0895,"lo2":-89.0444,"dy":0.0017,"dx":0.0017,"nx":28,"ny":28,"refTime":"2024-08-13T03:00:00:Z","depth":"0","parameterNumber":2,"parameterNumberName":"U-component_of_CURRENTS"},"data":[0,0,0,0,0,0,0,0,0,0,0,0,0,0,0,0,0,0,0,0,0,0,0,0,0,0,0,0,0,0,0,0,0,0,0,0,0,0,0,0,0,0,0,0,0,0,0,0,0,0,0,0,0,0,0,0,0,0,0.4461,0.4461,0,0.4457,0.4456,0.4456,0.4436,0.4437,0.4437,0.4437,0.4459,0.4459,0.4459,0,0,0,0,0,0,0,0,0,0,0,0,0,0.4467,0.4467,0.4461,0.4461,0.4462,0.4457,0.4456,0.4455,0.4436,0.4437,0.4437,0.4437,0.4459,0.4459,0.4459,0,0,0,0,0,0,0,0,0,0,0,0,0,0.4457,0.4466,0.4461,0.4457,0.4457,0.4457,0.4456,0.4455,0.4436,0.4437,0.4437,0.4437,0.4458,0.4459,0.4459,0.4457,0,0,0.4461,0.4461,0,0,0,0,0,0,0,0,0.4458,0.4456,0.4457,0.4458,0.4458,0.4454,0.4467,0.4459,0.4436,0.4437,0.4437,0.4437,0.4464,0.4464,0.4452,0.4458,0.4459,0.4461,0.4462,0.4462,0.4462,0,0,0,0,0,0,0,0.4458,0.4456,0.4452,0.4458,0.4458,0.4462,0.446,0.4465,0.4443,0.4437,0.4437,0.4448,0.4463,0.4451,0.4453,0.4459,0.4461,0.4462,0.4462,0.4462,0.453,0.4532,0,0,0,0,0,0,0.4472,0.4457,0.4452,0.4452,0.4467,0.4462,0.4459,0.4449,0.4443,0.4444,0.4448,0.4447,0.445,0.4452,0.4453,0.4477,0.4462,0.4462,0.4463,0.4529,0.453,0.4532,0,0,0,0,0,0,0.4472,0.4471,0.4452,0.4462,0.4461,0.4462,0.445,0.4449,0.444,0.4452,0.4453,0.4443,0.445,0.4453,0.4464,0.4477,0.4463,0.4463,0.4527,0.4529,0.4531,0.4507,0,0,0,0,0,0,0.4471,0.447,0.4464,0.4462,0.4461,0.4459,0.4451,0.4449,0.445,0.4449,0.4448,0.445,0.4451,0.4463,0.4465,0.4477,0.4464,0.4525,0.4528,0.4531,0.4506,0.4508,0.451,0,0,0,0,0,0.4471,0.4456,0.4463,0.4463,0.4452,0.446,0.4459,0.4457,0.445,0.4448,0.4449,0.445,0.4483,0.4464,0.4465,0.4479,0.4524,0.4527,0.453,0.4505,0.4508,0.451,0,0,0,0,0,0,0.4451,0.4453,0.446,0.4445,0.4461,0.446,0.4454,0.4458,0.4453,0.4449,0.4453,0.4456,0.4491,0.4486,0.4465,0.4513,0.451,0.4514,0.4491,0.4493,0.4495,0.4517,0.4464,0,0,0,0,0,0.4448,0.4437,0.4452,0.4443,0.4447,0.4452,0.4453,0.4457,0.4459,0.4455,0.4457,0.4471,0.4504,0.4497,0.453,0.4525,0.4584,0.4544,0.4546,0.4547,0.4571,0.4682,0.4696,0.4543,0.4543,0.4543,0,0,0.444,0.4441,0.4435,0.444,0.4442,0.4443,0.445,0.4454,0.4455,0.4461,0.4453,0.4489,0.4515,0.4534,0.4546,0.4523,0.4618,0.4552,0.4552,0.4575,0.4687,0.4702,0.4715,0.4545,0.4545,0.4544,0,0,0.4418,0.4417,0.4402,0.4412,0.4429,0.4436,0.4441,0.4446,0.4447,0.4455,0.4481,0.4523,0.4528,0.4562,0.4577,0.461,0.465,0.4615,0.4606,0.4712,0.4726,0.4739,0.4812,0.4832,0.4584,0.4584,0.4584,0,0.4412,0.4393,0.4403,0.4397,0.4404,0.4433,0.4427,0.4434,0.4445,0.446,0.4455,0.4534,0.4552,0.4604,0.4615,0.4616,0.4672,0.4584,0.4715,0.4729,0.4743,0.4815,0.4837,0.4583,0.4583,0.4583,0.4583,0,0.4383,0.4372,0.4365,0.4365,0.4376,0.4378,0.4401,0.4414,0.4426,0.4447,0.4512,0.455,0.4601,0.4612,0.4615,0.4713,0.4721,0.4728,0.4704,0.4757,0.4829,0.4852,0.4582,0.4582,0.4582,0.4582,0,0,0.4352,0.4346,0.4343,0.4336,0.436,0.436,0.4379,0.4411,0.4428,0.4467,0.4505,0.4577,0.4621,0.4648,0.4673,0.4742,0.4873,0.476,0.4766,0.4825,0.5095,0.4965,0.4978,0.4899,0.4904,0.4907,0.5098,0,0.4329,0.4303,0.4314,0.4298,0.4286,0.4325,0.4339,0.4378,0.4416,0.4461,0.4541,0.4601,0.4625,0.4657,0.4739,0.4857,0.4938,0.482,0.5044,0.5051,0.4923,0.5003,0.4699,0.4833,0.5121,0.5125,0.5128,0,0.4293,0.4282,0.4259,0.4259,0.4258,0.4261,0.4301,0.4322,0.4409,0.4446,0.4536,0.4606,0.4733,0.4741,0.4979,0.4902,0.501,0.5089,0.5098,0.5009,0.4966,0.4834,0.4865,0.4712,0.5165,0.5162,0.5159,0,0.4252,0.4239,0.4217,0.4217,0.4229,0.4234,0.4254,0.432,0.4344,0.4457,0.4502,0.4657,0.474,0.4918,0.5072,0.5051,0.532,0.5313,0.5302,0.5293,0.5096,0.5061,0.4999,0.5506,0.5506,0.5505,0.5505,0,0.4213,0.419,0.4193,0.4178,0.416,0.4193,0.4201,0.4247,0.4327,0.4372,0.45,0.4576,0.4795,0.4953,0.5104,0.5263,0.5361,0.5333,0.5348,0.5073,0.5036,0.4944,0.4887,0.5513,0.5511,0.551,0.5508,0,0.4155,0.4162,0.413,0.4136,0.4133,0.4123,0.4149,0.4164,0.4258,0.4329,0.4375,0.4552,0.4757,0.4946,0.5223,0.5278,0.5297,0.5488,0.5126,0.5093,0.4901,0.4855,0.4773,0.4656,0.5518,0.5517,0.5515,0,0.4116,0.4094,0.4083,0.4064,0.406,0.4053,0.405,0.412,0.4146,0.4313,0.4345,0.455,0.4665,0.4979,0.5116,0.533,0.5228,0.5161,0.5069,0.4864,0.4827,0.4712,0.4612,0.4805,0.4797,0.4792,0.4787,0,0.4035,0.4039,0.4017,0.3983,0.3965,0.3943,0.3951,0.3963,0.4069,0.413,0.4241,0.435,0.4605,0.4649,0.4881,0.4991,0.4849,0.5045,0.4939,0.4353,0.4122,0.402,0.4699,0.4734,0.4739,0.4743,0.4746,0.4748,0.3968,0.394,0.3918,0.3877,0.3853,0.3822,0.3767,0.3806,0.3825,0.3866,0.4057,0.4091,0.4206,0.4471,0.4555,0.4434,0.4551,0.4314,0.4309,0.4242,0.3997,0.454,0.4517,0.452,0.4524,0.4527,0.4529,0,0.3852,0.3836,0.3805,0.3734,0.3659,0.3695,0.3673,0.3602,0.3567,0.3645,0.3688,0.3676,0.3687,0.3799,0.3804,0.3707,0.3613,0.361,0.3365,0.3337,0.3904,0.3733,0.3404,0.3404,0.3404,0.3404,0.3404,0.3404,0.3784,0.3717,0.3705,0.3548,0.3498,0.3351,0.3314,0.3249,0.3248,0.3131,0.306,0.3131,0.3274,0.3277,0.3164,0.3115,0.2941,0.2772,0.2901,0.3251,0.3315,0.3376,0.3202,0.2767,0.2766,0.215,0.2145,0.2141]},{"header":{"parameterUnit":"m.s-1","parameterCategory":2,"la1":30.2991,"la2":30.254,"lo1":-89.0895,"lo2":-89.0444,"dy":0.0017,"dx":0.0017,"nx":28,"ny":28,"refTime":"2024-08-13T03:00:00:Z","depth":"0","parameterNumber":3,"parameterNumberName":"V-component_of_CURRENTS"},"data":[0,0,0,0,0,0,0,0,0,0,0,0,0,0,0,0,0,0,0,0,0,0,0,0,0,0,0,0,0,0,0,0,0,0,0,0,0,0,0,0,0,0,0,0,0,0,0,0,0,0,0,0,0,0,0,0,0,0,0.0642,0.0642,0,0.065,0.065,0.0649,0.0601,0.06,0.0599,0.0598,0.0573,0.0573,0.0573,0,0,0,0,0,0,0,0,0,0,0,0,0,0.0513,0.0516,0.0642,0.0642,0.0643,0.065,0.065,0.0649,0.0601,0.06,0.0599,0.0597,0.0573,0.0573,0.0573,0,0,0,0,0,0,0,0,0,0,0,0,0,0.0546,0.0517,0.0642,0.0623,0.0622,0.065,0.065,0.0649,0.0601,0.06,0.0598,0.0597,0.0573,0.0573,0.0573,0.0605,0,0,0.0574,0.0575,0,0,0,0,0,0,0,0,0.0544,0.055,0.0625,0.0624,0.0623,0.0627,0.0595,0.0634,0.0602,0.0604,0.0598,0.0596,0.0592,0.059,0.0589,0.0604,0.0603,0.0574,0.0575,0.0575,0.0575,0,0,0,0,0,0,0,0.0542,0.0549,0.064,0.0626,0.0625,0.059,0.0593,0.0602,0.0602,0.0604,0.0601,0.061,0.059,0.0589,0.0588,0.0602,0.0574,0.0575,0.0575,0.0575,0.0681,0.0684,0,0,0,0,0,0,0.0556,0.0548,0.064,0.0641,0.0584,0.0594,0.0597,0.0623,0.0603,0.06,0.0611,0.0608,0.0589,0.0588,0.0587,0.0656,0.0575,0.0575,0.0575,0.0679,0.0682,0.0685,0,0,0,0,0,0,0.0554,0.0565,0.064,0.0596,0.0604,0.0599,0.0628,0.0624,0.0618,0.0609,0.0604,0.0608,0.0588,0.0587,0.0616,0.0653,0.0575,0.0576,0.0676,0.068,0.0683,0.0773,0,0,0,0,0,0,0.055,0.0565,0.0581,0.0599,0.0608,0.0663,0.063,0.0626,0.0628,0.0623,0.0606,0.0602,0.0587,0.0616,0.0616,0.0652,0.0576,0.0672,0.0677,0.0682,0.0767,0.0779,0.079,0,0,0,0,0,0.0546,0.0578,0.0582,0.0593,0.0633,0.0664,0.0665,0.0651,0.063,0.0637,0.0638,0.0602,0.0647,0.0618,0.0618,0.0655,0.067,0.0676,0.0682,0.0761,0.0777,0.079,0,0,0,0,0,0,0.0524,0.0577,0.0581,0.0626,0.0647,0.0657,0.0665,0.0657,0.0662,0.0658,0.0635,0.0633,0.0675,0.0659,0.0628,0.0703,0.0653,0.0659,0.0714,0.0728,0.074,0.0752,0.0576,0,0,0,0,0,0.0533,0.0573,0.0608,0.0642,0.0657,0.0661,0.0668,0.0668,0.0679,0.0677,0.0674,0.068,0.0702,0.0708,0.0722,0.0761,0.0723,0.0787,0.0799,0.0809,0.0822,0.0817,0.0829,0.0704,0.0704,0.0704,0,0,0.0534,0.0568,0.0589,0.064,0.0653,0.0697,0.066,0.0686,0.0724,0.0677,0.0724,0.0722,0.0724,0.0773,0.0789,0.076,0.082,0.0816,0.0824,0.0832,0.0824,0.0836,0.0847,0.0708,0.0707,0.0707,0,0,0.0558,0.0589,0.0628,0.0659,0.0696,0.0715,0.0726,0.0752,0.0762,0.0811,0.0795,0.0821,0.0845,0.0863,0.0872,0.096,0.0886,0.0958,0.1023,0.1019,0.1028,0.1036,0.0975,0.0977,0.096,0.096,0.096,0,0.0547,0.062,0.064,0.0688,0.0726,0.0731,0.0784,0.0807,0.084,0.0867,0.084,0.0903,0.0896,0.0964,0.0993,0.0987,0.0946,0.0964,0.1032,0.1039,0.1046,0.0981,0.0982,0.0965,0.0965,0.0964,0.0964,0,0.0607,0.0664,0.0691,0.0768,0.0806,0.0854,0.0902,0.0941,0.0956,0.0977,0.1041,0.1041,0.1075,0.108,0.1061,0.1119,0.106,0.1046,0.0989,0.1063,0.0991,0.099,0.0972,0.0971,0.0969,0.0968,0,0,0.0587,0.0709,0.0719,0.0778,0.0859,0.0902,0.0983,0.1061,0.1117,0.114,0.1209,0.1244,0.1226,0.1237,0.1218,0.1212,0.121,0.1149,0.1147,0.1076,0.1152,0.1098,0.109,0.12,0.1201,0.1202,0.107,0,0.0626,0.0739,0.0792,0.0907,0.0976,0.1027,0.1107,0.1175,0.1219,0.1286,0.1293,0.1346,0.1292,0.1309,0.13,0.1257,0.1218,0.1244,0.1102,0.1097,0.1031,0.1093,0.1037,0.0915,0.1069,0.1068,0.1068,0,0.0675,0.075,0.0868,0.1008,0.104,0.1106,0.124,0.131,0.1399,0.143,0.1472,0.1471,0.1499,0.1428,0.1367,0.1382,0.127,0.1207,0.12,0.1123,0.1045,0.0874,0.0907,0.0731,0.1066,0.1066,0.1067,0,0.0678,0.0811,0.0914,0.096,0.1105,0.1168,0.1243,0.1348,0.1427,0.1516,0.157,0.1588,0.1601,0.1513,0.1402,0.1376,0.1305,0.1249,0.1079,0.107,0.0985,0.0968,0.0826,0.1169,0.117,0.117,0.117,0,0.0723,0.0805,0.0922,0.0982,0.1106,0.1191,0.1321,0.1398,0.1511,0.162,0.1634,0.1711,0.1622,0.1581,0.1444,0.1281,0.1332,0.11,0.1053,0.1012,0.1,0.0811,0.0739,0.1165,0.1166,0.1167,0.1168,0,0.0734,0.0809,0.0932,0.1072,0.1119,0.1207,0.1371,0.1467,0.1559,0.1701,0.1736,0.1796,0.1753,0.1638,0.1494,0.133,0.1076,0.1094,0.103,0.0979,0.0642,0.0578,0.0396,0.0348,0.0871,0.0869,0.0868,0,0.076,0.0822,0.0978,0.1049,0.1116,0.1247,0.1349,0.1479,0.1591,0.1764,0.1842,0.1849,0.1887,0.1662,0.1404,0.115,0.1004,0.0878,0.0827,0.0628,0.0522,0.0475,0.0446,0.0719,0.0717,0.0714,0.0713,0,0.0801,0.0849,0.095,0.1082,0.1193,0.1331,0.1481,0.1582,0.1752,0.1873,0.2024,0.2067,0.1867,0.1629,0.1281,0.1084,0.0759,0.0822,0.065,0.043,0.0338,0.0267,0.076,0.0694,0.0696,0.0697,0.0698,0.0699,0.0826,0.0891,0.1006,0.1137,0.1261,0.1417,0.1529,0.1694,0.1879,0.2073,0.2125,0.2182,0.1815,0.1358,0.1099,0.0532,0.0595,0.0326,0.0268,0.024,0.0198,0.0633,0.0507,0.0508,0.0508,0.0509,0.0509,0,0.0859,0.0936,0.1053,0.1216,0.1341,0.1407,0.1623,0.174,0.1948,0.2108,0.2227,0.204,0.1579,0.1111,0.0389,0.0039,-0.0054,-0.015,-0.0237,-0.0233,0.016,0.0159,-0.0086,-0.0086,-0.0085,-0.0085,-0.0085,-0.0085,0.088,0.0986,0.1049,0.1248,0.136,0.1524,0.1644,0.1819,0.1962,0.2096,0.2095,0.2109,0.1722,0.0523,-0.0305,-0.047,-0.062,-0.0699,-0.0734,-0.0498,-0.0458,-0.042,-0.0439,-0.0804,-0.0805,-0.1108,-0.1111,-0.1114]}],[{"header":{"parameterUnit":"m.s-1","parameterCategory":2,"la1":30.2991,"la2":30.254,"lo1":-89.0895,"lo2":-89.0444,"dy":0.0017,"dx":0.0017,"nx":28,"ny":28,"refTime":"2024-08-13T03:00:00:Z","depth":"2","parameterNumber":2,"parameterNumberName":"U-component_of_CURRENTS"},"data":[0,0,0,0,0,0,0,0,0,0,0,0,0,0,0,0,0,0,0,0,0,0,0,0,0,0,0,0,0,0,0,0,0,0,0,0,0,0,0,0,0,0,0,0,0,0,0,0,0,0,0,0,0,0,0,0,0,0,0.3495,0.3495,0,0.3519,0.3519,0.3519,0.3525,0.3525,0.3526,0.3526,0.3553,0.3554,0.3554,0,0,0,0,0,0,0,0,0,0,0,0,0,0.3439,0.344,0.3495,0.3496,0.3496,0.3519,0.3519,0.3519,0.3525,0.3525,0.3526,0.3526,0.3553,0.3554,0.3555,0,0,0,0,0,0,0,0,0,0,0,0,0,0.3461,0.344,0.3495,0.3504,0.3505,0.3519,0.3519,0.3519,0.3525,0.3525,0.3526,0.3526,0.3553,0.3554,0.3555,0.3557,0,0,0.3558,0.3558,0,0,0,0,0,0,0,0,0.3459,0.3462,0.3502,0.3503,0.3505,0.3522,0.351,0.3533,0.3525,0.3515,0.3526,0.3526,0.3545,0.3546,0.3547,0.3559,0.356,0.3558,0.3558,0.3559,0.3559,0,0,0,0,0,0,0,0.3458,0.3461,0.3502,0.3503,0.3504,0.3502,0.3505,0.3514,0.3526,0.3516,0.3517,0.3524,0.3545,0.3546,0.3547,0.356,0.3558,0.3558,0.3559,0.3559,0.3633,0.3634,0,0,0,0,0,0,0.3461,0.346,0.3501,0.3503,0.3485,0.3503,0.3506,0.3514,0.3526,0.3529,0.3524,0.3524,0.3544,0.3546,0.3548,0.3593,0.3559,0.356,0.356,0.3632,0.3633,0.3635,0,0,0,0,0,0,0.346,0.3465,0.35,0.3484,0.3489,0.3504,0.3512,0.3514,0.3525,0.3533,0.3535,0.3534,0.3544,0.3547,0.3571,0.3593,0.356,0.3561,0.363,0.3632,0.3634,0.3657,0,0,0,0,0,0,0.3458,0.3464,0.3475,0.3484,0.349,0.352,0.3513,0.3515,0.353,0.353,0.3542,0.3544,0.3544,0.357,0.3572,0.3594,0.3562,0.3628,0.3631,0.3633,0.3655,0.366,0.3664,0,0,0,0,0,0.3456,0.3462,0.3475,0.3481,0.3503,0.3521,0.3524,0.3533,0.353,0.3541,0.355,0.3544,0.3588,0.3571,0.3574,0.3596,0.3627,0.363,0.3633,0.3653,0.3659,0.3664,0,0,0,0,0,0,0.344,0.3464,0.3478,0.3492,0.3515,0.3524,0.3529,0.3539,0.3553,0.3553,0.3556,0.356,0.359,0.3593,0.3574,0.3628,0.3609,0.3613,0.3623,0.3629,0.3634,0.3634,0.3562,0,0,0,0,0,0.3445,0.3458,0.3484,0.3497,0.3506,0.3521,0.353,0.3542,0.3554,0.356,0.3565,0.358,0.3603,0.3615,0.3629,0.3655,0.3695,0.3674,0.3679,0.3683,0.3687,0.3792,0.3807,0.3645,0.3645,0.3645,0,0,0.3439,0.3458,0.3463,0.3496,0.3507,0.3518,0.3526,0.3544,0.3556,0.3561,0.3572,0.3593,0.3614,0.3644,0.3659,0.365,0.3749,0.3687,0.369,0.3692,0.3797,0.3813,0.3827,0.3647,0.3647,0.3647,0,0,0.3428,0.3454,0.3458,0.348,0.3512,0.3523,0.3532,0.3549,0.3562,0.3585,0.3596,0.3634,0.3651,0.3679,0.3695,0.3737,0.377,0.3743,0.3768,0.387,0.3885,0.3898,0.3963,0.3982,0.3748,0.3748,0.3748,0,0.3426,0.3436,0.3464,0.3477,0.3492,0.3524,0.3532,0.355,0.3575,0.3597,0.3592,0.3659,0.367,0.3731,0.3744,0.3747,0.3804,0.3741,0.3878,0.3892,0.3905,0.3969,0.3989,0.3749,0.3749,0.3749,0.3749,0,0.3416,0.3432,0.3435,0.3462,0.3484,0.3499,0.3532,0.3559,0.3577,0.3602,0.3665,0.3695,0.3745,0.3755,0.3758,0.3856,0.3865,0.3871,0.3862,0.3923,0.3986,0.4007,0.3751,0.3751,0.375,0.375,0,0,0.3391,0.3421,0.3425,0.3435,0.3481,0.3493,0.3529,0.3574,0.3608,0.3649,0.3705,0.3751,0.379,0.3812,0.3838,0.3914,0.4044,0.3932,0.3937,0.3994,0.4263,0.3974,0.3969,0.4088,0.4092,0.4095,0.4267,0,0.3378,0.3387,0.3413,0.3425,0.3431,0.3484,0.3515,0.3568,0.3618,0.368,0.375,0.3809,0.3807,0.385,0.3929,0.4019,0.4102,0.3995,0.4197,0.4202,0.3937,0.3984,0.3657,0.3756,0.4287,0.4291,0.4293,0,0.3362,0.3371,0.3377,0.3412,0.3421,0.3441,0.3513,0.355,0.3656,0.3702,0.3795,0.3854,0.3972,0.3964,0.4163,0.4104,0.4188,0.4248,0.4257,0.3991,0.3951,0.3784,0.3775,0.4328,0.4326,0.4323,0.4321,0,0.3326,0.3348,0.335,0.3362,0.3408,0.3435,0.347,0.3561,0.3607,0.3738,0.38,0.3938,0.4025,0.4163,0.4272,0.4252,0.4481,0.4474,0.4295,0.4276,0.4033,0.3982,0.463,0.4629,0.4629,0.4629,0.4628,0,0.3301,0.3299,0.3333,0.3337,0.3352,0.3407,0.3453,0.3515,0.3625,0.3694,0.3817,0.3906,0.4086,0.4223,0.4321,0.4346,0.4534,0.4296,0.4299,0.4024,0.3973,0.4494,0.4476,0.4635,0.4633,0.4632,0.4631,0,0.3251,0.3275,0.3278,0.3321,0.3335,0.3351,0.3426,0.3463,0.3583,0.3689,0.3742,0.3926,0.4092,0.4233,0.4452,0.4366,0.4451,0.4424,0.4049,0.3997,0.4173,0.4155,0.4236,0.4227,0.4219,0.4213,0.4208,0,0.3216,0.3217,0.3253,0.3256,0.3271,0.3306,0.3329,0.3432,0.3479,0.3691,0.3736,0.3933,0.3968,0.4118,0.4096,0.4149,0.4367,0.3827,0.3682,0.4137,0.4135,0.4128,0.412,0.3411,0.34,0.3391,0.3383,0,0.3154,0.3178,0.3185,0.3187,0.3203,0.3212,0.326,0.3287,0.3428,0.349,0.3606,0.3646,0.3748,0.3591,0.3588,0.3594,0.3766,0.3624,0.4282,0.3494,0.3354,0.3352,0.3374,0.33,0.3309,0.3315,0.3319,0.3323,0.3108,0.3094,0.311,0.3101,0.3113,0.3098,0.3069,0.3083,0.3097,0.3128,0.3323,0.3253,0.3246,0.303,0.2984,0.2988,0.3225,0.3099,0.3133,0.3176,0.2982,0.2828,0.2643,0.2647,0.265,0.2654,0.2657,0,0.3014,0.3014,0.3013,0.298,0.2933,0.2992,0.2993,0.289,0.2787,0.284,0.2813,0.2541,0.2357,0.2496,0.2309,0.2209,0.226,0.2182,0.2263,0.2341,0.2412,0.2186,0.1634,0.1631,0.1629,0.1627,0,0,0.2961,0.2912,0.2904,0.2797,0.2786,0.2675,0.2651,0.247,0.2422,0.2242,0.2182,0.2225,0.2324,0.1938,0.1859,0.1747,0.2053,0.1681,0.2492,0.2663,0.2733,0.2911,0.2643,0,0,0,0,0]},{"header":{"parameterUnit":"m.s-1","parameterCategory":2,"la1":30.2991,"la2":30.254,"lo1":-89.0895,"lo2":-89.0444,"dy":0.0017,"dx":0.0017,"nx":28,"ny":28,"refTime":"2024-08-13T03:00:00:Z","depth":"2","parameterNumber":3,"parameterNumberName":"V-component_of_CURRENTS"},"data":[0,0,0,0,0,0,0,0,0,0,0,0,0,0,0,0,0,0,0,0,0,0,0,0,0,0,0,0,0,0,0,0,0,0,0,0,0,0,0,0,0,0,0,0,0,0,0,0,0,0,0,0,0,0,0,0,0,0,0.0088,0.0088,0,0.0003,0.0001,0.0,-0.0084,-0.0084,-0.0085,-0.0086,-0.0205,-0.0207,-0.0209,0,0,0,0,0,0,0,0,0,0,0,0,0,0.0053,0.0055,0.0088,0.0088,0.0087,0.0003,0.0001,-0.0,-0.0084,-0.0084,-0.0085,-0.0086,-0.0204,-0.0207,-0.021,0,0,0,0,0,0,0,0,0,0,0,0,0,0.0025,0.0055,0.0088,0.0038,0.0032,0.0003,0.0001,-0.0001,-0.0083,-0.0085,-0.0086,-0.0087,-0.0203,-0.0206,-0.021,-0.0209,0,0,-0.0221,-0.0223,0,0,0,0,0,0,0,0,0.0027,0.0026,0.0046,0.0041,0.0035,-0.0028,-0.0055,-0.0071,-0.0083,-0.0043,-0.0086,-0.0087,-0.0145,-0.0154,-0.0172,-0.0215,-0.022,-0.0221,-0.0224,-0.0225,-0.0226,0,0,0,0,0,0,0,0.0029,0.0029,0.0051,0.0045,0.0039,-0.0024,-0.0029,-0.0059,-0.009,-0.0047,-0.0052,-0.0056,-0.0149,-0.0168,-0.0175,-0.0222,-0.0221,-0.0225,-0.0227,-0.0228,-0.0257,-0.0256,0,0,0,0,0,0,0.0055,0.0032,0.0054,0.0049,0.0032,-0.0022,-0.0027,-0.0009,-0.0089,-0.0101,-0.0055,-0.0059,-0.0161,-0.0171,-0.018,-0.0156,-0.0225,-0.0229,-0.0231,-0.0259,-0.0257,-0.0256,0,0,0,0,0,0,0.0055,0.0059,0.0057,0.0039,0.0035,-0.0018,0.0001,-0.001,-0.0029,-0.0094,-0.0108,-0.0062,-0.0163,-0.0175,-0.0192,-0.0162,-0.023,-0.0234,-0.026,-0.0258,-0.0256,-0.0125,0,0,0,0,0,0,0.0055,0.006,0.0068,0.0042,0.0037,0.0055,0.0002,-0.0011,-0.0028,-0.0035,-0.0104,-0.0117,-0.0164,-0.0186,-0.0195,-0.0168,-0.0236,-0.0262,-0.0259,-0.0257,-0.0132,-0.0119,-0.0108,0,0,0,0,0,0.0054,0.0082,0.0069,0.0071,0.0055,0.0057,0.0048,0.0002,-0.0027,-0.0023,-0.0067,-0.0115,-0.0176,-0.0187,-0.0199,-0.0172,-0.0264,-0.026,-0.0257,-0.0137,-0.0122,-0.0109,0,0,0,0,0,0,0.0072,0.0076,0.0061,0.0088,0.0079,0.0044,0.0036,0.0012,-0.0021,-0.0031,-0.0097,-0.0111,-0.0118,-0.016,-0.017,-0.0173,-0.0228,-0.0227,-0.0132,-0.0119,-0.0107,-0.0094,-0.0239,0,0,0,0,0,0.0083,0.0101,0.0095,0.0114,0.0112,0.0076,0.0064,0.0045,0.0018,0.0001,-0.0045,-0.0089,-0.0113,-0.0127,-0.0163,-0.0159,-0.0205,-0.015,-0.0138,-0.0128,-0.0125,-0.0165,-0.0157,-0.0245,-0.0245,-0.0245,0,0,0.0094,0.0098,0.0106,0.0117,0.0099,0.0119,0.0065,0.0066,0.0082,-0.0005,-0.0009,-0.0054,-0.0105,-0.0104,-0.011,-0.0134,-0.0123,-0.0124,-0.0115,-0.0118,-0.0161,-0.0152,-0.0145,-0.0243,-0.0243,-0.0244,0,0,0.0127,0.0132,0.0154,0.016,0.0154,0.0146,0.0156,0.0133,0.0118,0.0118,0.0061,0.0041,-0.0004,-0.0028,-0.0045,0.001,-0.0065,-0.0003,0.0071,0.0033,0.004,0.0046,0.0016,0.0018,0.0008,0.0009,0.0009,0,0.0129,0.0172,0.0159,0.0185,0.0197,0.017,0.0204,0.0197,0.0172,0.0168,0.0134,0.0078,0.0035,0.0045,0.0064,0.0037,0.0,0.0025,0.0049,0.0053,0.0056,0.0025,0.0025,0.0015,0.0014,0.0014,0.0013,0,0.0182,0.0213,0.023,0.0262,0.0277,0.0303,0.0308,0.0315,0.0295,0.0278,0.027,0.0212,0.0179,0.0169,0.0133,0.0145,0.0107,0.0065,0.0016,0.0073,0.0036,0.0034,0.0025,0.0022,0.002,0.0019,0,0,0.0187,0.0253,0.0257,0.0289,0.0322,0.0346,0.0388,0.0414,0.044,0.0403,0.0422,0.0381,0.0335,0.0312,0.0264,0.0236,0.0235,0.017,0.0165,0.0146,0.0155,0.0101,0.0093,0.0192,0.0192,0.0192,0.0127,0,0.0223,0.0297,0.0322,0.0399,0.044,0.0452,0.0499,0.052,0.0517,0.0529,0.0476,0.047,0.0397,0.0387,0.035,0.0263,0.0232,0.0257,0.0098,0.0093,0.0042,0.0089,0.0098,0.0038,0.0124,0.0124,0.0124,0,0.0262,0.031,0.0392,0.048,0.0498,0.0543,0.0612,0.0651,0.0669,0.0663,0.0644,0.0595,0.0567,0.0487,0.0371,0.0388,0.0284,0.0207,0.0202,0.01,0.0034,-0.001,0.0029,0.0119,0.0119,0.0119,0.012,0,0.0274,0.0361,0.0432,0.0461,0.0552,0.059,0.0638,0.0681,0.0726,0.0746,0.077,0.071,0.0689,0.056,0.0415,0.0388,0.0275,0.0213,0.0066,0.0061,0.001,0.0001,0.0118,0.0118,0.0118,0.0118,0.0119,0,0.0313,0.0368,0.0443,0.0484,0.0575,0.0623,0.0713,0.0751,0.081,0.0886,0.0834,0.0877,0.0702,0.0621,0.0461,0.0273,0.0308,0.0086,0.0042,0.0058,0.0054,0.0068,0.0064,0.0116,0.0116,0.0117,0.0117,0,0.0326,0.0375,0.0459,0.0552,0.0586,0.065,0.0769,0.0837,0.0886,0.0985,0.1001,0.0993,0.0904,0.0723,0.0527,0.034,0.0163,0.0082,0.0119,0.0079,-0.0042,-0.0039,-0.01,-0.0102,-0.0104,-0.0106,-0.0107,0,0.0347,0.0389,0.0495,0.055,0.0595,0.0693,0.0774,0.0862,0.0949,0.1073,0.1132,0.109,0.1067,0.0766,0.0469,0.0179,0.0163,-0.0031,-0.0097,-0.0026,-0.0063,-0.0057,-0.0052,-0.0102,-0.0103,-0.0104,-0.0105,0,0.0379,0.0407,0.048,0.0582,0.067,0.0783,0.0905,0.0993,0.1123,0.123,0.1361,0.135,0.1074,0.0786,0.0374,0.0179,0.0013,-0.0067,0.0011,-0.0053,-0.0036,-0.007,-0.0063,-0.0114,-0.0113,-0.0113,-0.0112,-0.0112,0.0397,0.0444,0.0526,0.063,0.0736,0.0874,0.0984,0.1121,0.1295,0.1442,0.1458,0.1434,0.1091,0.0552,0.0255,-0.005,-0.0064,-0.0213,-0.0207,-0.02,-0.0194,-0.0181,-0.0285,-0.0285,-0.0285,-0.0286,-0.0286,0,0.0423,0.0478,0.0569,0.0704,0.0825,0.0872,0.1078,0.1192,0.1404,0.1489,0.1551,0.1245,0.0905,0.0583,0.0099,-0.0232,-0.0228,-0.0302,-0.0233,-0.0224,-0.0216,-0.0206,-0.0304,-0.0304,-0.0304,-0.0304,0,0,0.0442,0.0526,0.0575,0.0758,0.0853,0.1039,0.1166,0.1309,0.1416,0.1508,0.149,0.1338,0.0957,0.0595,0.0197,-0.0038,-0.0053,-0.0083,-0.0048,0.0086,0.0099,-0.0158,-0.0135,0,0,0,0,0]}],[{"header":{"parameterUnit":"m.s-1","parameterCategory":2,"la1":30.2991,"la2":30.254,"lo1":-89.0895,"lo2":-89.0444,"dy":0.0017,"dx":0.0017,"nx":28,"ny":28,"refTime":"2024-08-13T03:00:00:Z","depth":"4","parameterNumber":2,"parameterNumberName":"U-component_of_CURRENTS"},"data":[0,0,0,0,0,0,0,0,0,0,0,0,0,0,0,0,0,0,0,0,0,0,0,0,0,0,0,0,0,0,0,0,0,0,0,0,0,0,0,0,0,0,0,0,0,0,0,0,0,0,0,0,0,0,0,0,0,0,0.0643,0.0643,0,0.067,0.067,0.067,0.0705,0.0705,0.0706,0.0707,0.0819,0.0821,0.0824,0,0,0,0,0,0,0,0,0,0,0,0,0,0.058,0.0581,0.0643,0.0643,0.0644,0.067,0.067,0.067,0.0705,0.0705,0.0706,0.0707,0.0818,0.0821,0.0824,0,0,0,0,0,0,0,0,0,0,0,0,0,0.0606,0.0581,0.0643,0.0665,0.0668,0.067,0.067,0.067,0.0704,0.0706,0.0707,0.0708,0.0817,0.0821,0.0824,0.0824,0,0,0.0835,0.0836,0,0,0,0,0,0,0,0,0.0604,0.0608,0.0662,0.0664,0.0667,0.0686,0.0689,0.0727,0.0704,0.0689,0.0707,0.0708,0.0783,0.0789,0.0788,0.083,0.0834,0.0835,0.0837,0.0839,0.084,0,0,0,0,0,0,0,0.0602,0.0606,0.0652,0.0662,0.0665,0.066,0.0665,0.0695,0.073,0.069,0.0693,0.0698,0.0785,0.0785,0.0792,0.0836,0.0835,0.0838,0.084,0.0842,0.0971,0.0972,0,0,0,0,0,0,0.0604,0.0605,0.0651,0.0653,0.0639,0.0661,0.0666,0.0678,0.0728,0.0736,0.0698,0.07,0.0778,0.0787,0.0796,0.0946,0.0839,0.0842,0.0844,0.0969,0.0971,0.0972,0,0,0,0,0,0,0.0602,0.0608,0.065,0.063,0.0636,0.0661,0.0673,0.0678,0.0709,0.0733,0.0743,0.0728,0.078,0.0791,0.0859,0.0945,0.0844,0.0847,0.0968,0.097,0.0972,0.1153,0,0,0,0,0,0,0.06,0.0607,0.0631,0.0631,0.0637,0.0679,0.0673,0.0677,0.0709,0.0713,0.0762,0.0771,0.0781,0.0854,0.0863,0.0948,0.085,0.0966,0.0969,0.0971,0.1145,0.1161,0.1174,0,0,0,0,0,0.0598,0.0617,0.0632,0.0639,0.0665,0.068,0.0684,0.0703,0.071,0.0733,0.0769,0.0771,0.0875,0.0858,0.0868,0.0957,0.0965,0.0968,0.0971,0.1139,0.1158,0.1174,0,0,0,0,0,0,0.0605,0.0622,0.0639,0.0665,0.0688,0.0688,0.0711,0.0719,0.0761,0.0781,0.0795,0.0808,0.0889,0.0883,0.0863,0.0991,0.0918,0.0923,0.1042,0.106,0.1074,0.1105,0.0852,0,0,0,0,0,0.0618,0.064,0.0655,0.0684,0.0696,0.0709,0.0724,0.0741,0.0768,0.0788,0.0836,0.0872,0.0901,0.095,0.0965,0.1053,0.1,0.1107,0.1122,0.1135,0.1161,0.1146,0.1162,0.0982,0.0982,0.0982,0,0,0.0629,0.0643,0.0658,0.0688,0.0705,0.0729,0.0722,0.0758,0.08,0.0796,0.0894,0.0919,0.0923,0.1015,0.1053,0.1037,0.115,0.1139,0.1151,0.117,0.1151,0.1169,0.1184,0.0984,0.0984,0.0984,0,0,0.064,0.0677,0.0691,0.0713,0.075,0.0768,0.0786,0.0827,0.0872,0.0971,0.0957,0.1034,0.1119,0.1136,0.115,0.1247,0.1204,0.1263,0.1408,0.1393,0.1408,0.1422,0.1348,0.1353,0.1301,0.1302,0.1302,0,0.0656,0.0681,0.07,0.0717,0.0748,0.0788,0.0818,0.0861,0.0934,0.0993,0.1033,0.1157,0.1174,0.1246,0.1311,0.1288,0.1257,0.1353,0.1416,0.1428,0.1438,0.1359,0.1363,0.1311,0.131,0.1309,0.1308,0,0.0653,0.0701,0.0715,0.0758,0.079,0.0834,0.0888,0.0974,0.1067,0.1123,0.1259,0.1308,0.1403,0.1415,0.1425,0.1512,0.1454,0.1415,0.1382,0.1468,0.1378,0.1378,0.1324,0.1321,0.1318,0.1316,0,0,0.0622,0.0702,0.0705,0.0759,0.0827,0.0855,0.0956,0.1057,0.1156,0.1283,0.1413,0.1514,0.1593,0.161,0.1623,0.1645,0.17,0.1617,0.1611,0.1561,0.1648,0.155,0.1539,0.1698,0.17,0.1701,0.1544,0,0.0628,0.0674,0.0712,0.0797,0.0845,0.0934,0.1022,0.1125,0.1267,0.1413,0.1496,0.1626,0.1645,0.1749,0.1779,0.172,0.1717,0.1744,0.1556,0.1549,0.1469,0.1542,0.1707,0.1544,0.1544,0.1544,0.1544,0,0.0611,0.0655,0.072,0.0864,0.0891,0.0965,0.1152,0.1245,0.1429,0.1552,0.1719,0.1788,0.1895,0.1887,0.1861,0.1894,0.1812,0.1736,0.1727,0.1581,0.1455,0.1443,0.1543,0.1543,0.1543,0.1543,0.1543,0,0.0576,0.0677,0.0742,0.0777,0.0918,0.1018,0.1137,0.1317,0.1437,0.1677,0.1795,0.1916,0.2,0.196,0.1867,0.1904,0.1748,0.1751,0.1546,0.1533,0.1586,0.1574,0.169,0.1691,0.1691,0.1691,0.1692,0,0.0571,0.0635,0.0756,0.0793,0.0945,0.1041,0.1251,0.1397,0.1596,0.1689,0.1893,0.194,0.2038,0.1969,0.1878,0.1704,0.1751,0.1585,0.1511,0.1657,0.1655,0.1583,0.1573,0.1685,0.1687,0.1688,0.1689,0,0.0532,0.0599,0.0694,0.085,0.0945,0.1059,0.1344,0.1436,0.1662,0.1794,0.1877,0.1996,0.1933,0.1897,0.1772,0.1693,0.153,0.1417,0.1529,0.1459,0.1327,0.1328,0.1267,0.1262,0.1259,0.1256,0.1253,0,0.0515,0.0546,0.0726,0.0795,0.0895,0.1111,0.1219,0.148,0.1549,0.1735,0.1712,0.1784,0.1816,0.157,0.154,0.1375,0.1325,0.1257,0.1392,0.1362,0.1295,0.1301,0.1307,0.1248,0.1247,0.1246,0.1245,0,0.0458,0.0513,0.0591,0.0746,0.0874,0.1041,0.1222,0.1288,0.1471,0.1634,0.1607,0.1622,0.1519,0.1471,0.1355,0.1206,0.1356,0.1221,0.1231,0.1357,0.1337,0.1277,0.1286,0.1232,0.1234,0.1235,0.1236,0,0.0429,0.0462,0.0546,0.0697,0.0811,0.091,0.1073,0.1137,0.128,0.1451,0.1369,0.1398,0.1455,0.1361,0.1192,0.1137,0.1161,0.1157,0.1171,0.1185,0.1236,0.1204,0.1011,0,0,0,0,0,0.0394,0.0419,0.0489,0.0628,0.0698,0.0823,0.0983,0.1099,0.1237,0.1184,0.1333,0.1229,0.1181,0.1158,0.1085,0.1115,0.1126,0.1023,0.1122,0.1164,0.1178,0.1248,0,0,0,0,0,0,0.0372,0.0426,0.0452,0.0497,0.0572,0.0691,0.0814,0.0932,0.0953,0.1075,0.104,0.1151,0.1084,0.1192,0.1051,0.1045,0.1088,0.1039,0.1037,0.1156,0.1169,0.118,0.1257,0,0,0,0,0]},{"header":{"parameterUnit":"m.s-1","parameterCategory":2,"la1":30.2991,"la2":30.254,"lo1":-89.0895,"lo2":-89.0444,"dy":0.0017,"dx":0.0017,"nx":28,"ny":28,"refTime":"2024-08-13T03:00:00:Z","depth":"4","parameterNumber":3,"parameterNumberName":"V-component_of_CURRENTS"},"data":[0,0,0,0,0,0,0,0,0,0,0,0,0,0,0,0,0,0,0,0,0,0,0,0,0,0,0,0,0,0,0,0,0,0,0,0,0,0,0,0,0,0,0,0,0,0,0,0,0,0,0,0,0,0,0,0,0,0,0.0191,0.019,0,0.0126,0.0125,0.0124,0.0101,0.0102,0.0102,0.0102,-0.008,-0.0085,-0.0089,0,0,0,0,0,0,0,0,0,0,0,0,0,0.0245,0.0244,0.0191,0.019,0.0189,0.0126,0.0125,0.0124,0.0101,0.0102,0.0102,0.0102,-0.0078,-0.0084,-0.009,0,0,0,0,0,0,0,0,0,0,0,0,0,0.0205,0.0244,0.0191,0.0169,0.0167,0.0126,0.0125,0.0124,0.0101,0.0102,0.0102,0.0102,-0.0076,-0.0083,-0.0091,-0.0143,0,0,-0.0114,-0.0117,0,0,0,0,0,0,0,0,0.0208,0.0204,0.0173,0.0171,0.0168,0.0121,0.0077,0.0029,0.0101,0.0127,0.0102,0.0102,-0.0024,-0.0036,-0.0046,-0.0151,-0.0159,-0.0114,-0.0119,-0.0122,-0.0124,0,0,0,0,0,0,0,0.0211,0.0206,0.0166,0.0173,0.0169,0.0146,0.0141,0.0068,0.0049,0.0125,0.0123,0.0114,-0.0026,-0.0038,-0.0051,-0.0162,-0.0114,-0.0121,-0.0125,-0.0128,-0.0379,-0.0381,0,0,0,0,0,0,0.022,0.0209,0.0168,0.0164,0.0188,0.0145,0.0139,0.0137,0.0052,0.0041,0.0114,0.0114,-0.0026,-0.0042,-0.0057,-0.0156,-0.0122,-0.0129,-0.0133,-0.0377,-0.0379,-0.0382,0,0,0,0,0,0,0.0221,0.0217,0.017,0.0184,0.0176,0.0144,0.014,0.0135,0.0127,0.0046,0.0032,0.0112,-0.0026,-0.0047,-0.0136,-0.0162,-0.0133,-0.0139,-0.0374,-0.0377,-0.038,-0.0334,0,0,0,0,0,0,0.0223,0.0218,0.0221,0.0185,0.0176,0.0146,0.014,0.0134,0.0121,0.0119,0.0038,0.0022,-0.0028,-0.0124,-0.0143,-0.0172,-0.0145,-0.0371,-0.0376,-0.0379,-0.0333,-0.0336,-0.0338,0,0,0,0,0,0.0225,0.0228,0.0222,0.0217,0.0181,0.0145,0.0138,0.0116,0.012,0.0112,0.0049,0.0025,-0.0163,-0.0132,-0.0154,-0.0185,-0.0369,-0.0374,-0.0379,-0.0332,-0.0335,-0.0338,0,0,0,0,0,0,0.0254,0.0225,0.0218,0.0212,0.0181,0.0141,0.0135,0.0121,0.0069,0.0069,-0.0002,-0.0025,-0.0115,-0.0162,-0.0125,-0.0273,-0.0271,-0.0281,-0.0228,-0.0232,-0.0234,-0.0189,-0.0151,0,0,0,0,0,0.0263,0.0259,0.0221,0.0218,0.0205,0.0173,0.0159,0.0143,0.0093,0.0074,0.0008,-0.007,-0.0153,-0.0198,-0.0277,-0.0354,-0.038,-0.0393,-0.0395,-0.0396,-0.0378,-0.0456,-0.0462,-0.0397,-0.0397,-0.0397,0,0,0.0271,0.0257,0.0254,0.0224,0.0203,0.0177,0.0166,0.0147,0.012,0.0057,-0.0009,-0.0082,-0.0178,-0.0267,-0.0312,-0.0307,-0.0428,-0.0402,-0.0402,-0.0383,-0.0461,-0.0467,-0.0472,-0.0401,-0.04,-0.04,0,0,0.0285,0.0277,0.0275,0.0251,0.0221,0.0191,0.0188,0.014,0.0116,0.0044,-0.0015,-0.0099,-0.0221,-0.0294,-0.0347,-0.0412,-0.0439,-0.0444,-0.0417,-0.0493,-0.0497,-0.0502,-0.0527,-0.0534,-0.0442,-0.0442,-0.0442,0,0.0295,0.0293,0.0267,0.0255,0.0237,0.0199,0.0184,0.0147,0.0071,0.0039,0.0026,-0.0158,-0.0234,-0.0346,-0.0363,-0.0414,-0.044,-0.0391,-0.0491,-0.0496,-0.0501,-0.0527,-0.0535,-0.044,-0.0441,-0.0441,-0.0441,0,0.0301,0.0299,0.0297,0.0267,0.0236,0.0224,0.0166,0.0131,0.0095,0.0044,-0.0064,-0.0168,-0.0266,-0.032,-0.0357,-0.0445,-0.0443,-0.0482,-0.0469,-0.0504,-0.053,-0.0539,-0.0438,-0.0439,-0.0439,-0.044,0,0,0.0324,0.0307,0.0306,0.0305,0.0249,0.0229,0.0177,0.0115,0.0096,-0.0003,-0.0058,-0.0201,-0.0236,-0.0297,-0.0368,-0.0436,-0.0491,-0.0457,-0.0462,-0.0453,-0.0619,-0.0536,-0.0539,-0.0543,-0.0544,-0.0546,-0.0613,0,0.0339,0.0339,0.0312,0.0297,0.0291,0.0239,0.0198,0.0133,0.0076,0.0007,-0.0109,-0.0179,-0.0236,-0.026,-0.0349,-0.0473,-0.0517,-0.0466,-0.061,-0.0613,-0.0514,-0.0548,-0.0552,-0.0621,-0.0623,-0.0624,-0.0625,0,0.0348,0.0353,0.0354,0.0333,0.0325,0.0314,0.0261,0.0222,0.0115,0.0072,-0.0024,-0.0106,-0.0232,-0.0256,-0.046,-0.0423,-0.0493,-0.0579,-0.0585,-0.0525,-0.0549,-0.0588,-0.0643,-0.0641,-0.064,-0.0639,-0.0638,0,0.0384,0.0376,0.0389,0.0381,0.0346,0.0351,0.0337,0.0255,0.0241,0.0145,0.012,-0.0058,-0.012,-0.0276,-0.0441,-0.0445,-0.0651,-0.0688,-0.0675,-0.067,-0.074,-0.0735,-0.0788,-0.0788,-0.0788,-0.0788,-0.0788,0,0.0403,0.0415,0.043,0.0442,0.0483,0.0425,0.0456,0.0415,0.0353,0.0305,0.019,0.0103,-0.0122,-0.0276,-0.0429,-0.0578,-0.0641,-0.0658,-0.0687,-0.0719,-0.0711,-0.0745,-0.0739,-0.079,-0.079,-0.0789,-0.0789,0,0.0426,0.0435,0.0465,0.0478,0.0513,0.0543,0.0589,0.0568,0.0534,0.0469,0.0451,0.0238,0.0034,-0.0171,-0.0432,-0.0524,-0.0696,-0.0715,-0.0696,-0.0726,-0.066,-0.0652,-0.0713,-0.0711,-0.0709,-0.0707,-0.0706,0,0.0433,0.0452,0.0525,0.0565,0.0594,0.0662,0.0682,0.0678,0.0637,0.0514,0.044,0.0287,0.0124,-0.017,-0.0397,-0.0628,-0.065,-0.0696,-0.0703,-0.0633,-0.0656,-0.065,-0.0645,-0.0703,-0.0702,-0.0702,-0.0701,0,0.0436,0.0468,0.0501,0.061,0.0671,0.0734,0.0763,0.0762,0.0679,0.0657,0.0467,0.0313,0.0095,-0.0164,-0.0296,-0.0493,-0.0664,-0.0677,-0.0682,-0.069,-0.0622,-0.0645,-0.0642,-0.0695,-0.0696,-0.0696,-0.0697,0,0.0448,0.0479,0.0534,0.063,0.0702,0.0738,0.0783,0.072,0.0719,0.0571,0.0487,0.0261,0.0117,-0.0096,-0.0281,-0.0399,-0.0434,-0.0462,-0.0479,-0.0488,-0.0402,-0.0281,-0.0266,0,0,0,0,0,0.0446,0.0478,0.0538,0.0621,0.0674,0.0751,0.0762,0.0762,0.0701,0.059,0.0562,0.0355,0.0112,-0.0043,-0.0141,-0.0255,-0.046,-0.0372,-0.0501,-0.0659,-0.0666,-0.0596,0,0,0,0,0,0,0.0441,0.0499,0.0527,0.0583,0.0643,0.0712,0.0746,0.0715,0.0653,0.0571,0.0432,0.0371,0.0117,0.0187,-0.0131,-0.0176,-0.0262,-0.0494,-0.0495,-0.0655,-0.0661,-0.0667,-0.0597,0,0,0,0,0]}]]